KN4CGX Weather Reports


time (UTC)temp
C
wind
direction
speed
KPH
gust
KPH
rain 1hr
cm
rain 24hr
cm
rain mn
cm
humidity
%
barometer
mb
20260510231533 25 121 1.6 11.3 0.00 0.10 0.03 80 1016.2
20260510230030 25 200 3.2 8.0 0.00 0.10 0.03 78 1016.2
20260510224531 25 172 4.8 9.7 0.00 0.15 0.03 76 1016.2
20260510223030 26 229 4.8 11.3 0.00 0.15 0.03 74 1016.1
20260510221529 26 124 3.2 14.5 0.00 0.15 0.03 74 1016.0
20260510220030 27 154 0.0 9.7 0.00 0.15 0.03 71 1016.2
20260510214530 27 206 1.6 11.3 0.00 0.23 0.03 74 1016.0
20260510213040 27 153 1.6 16.1 0.00 0.23 0.03 71 1015.9
20260510211531 27 105 4.8 12.9 0.00 0.23 0.03 72 1015.9
20260510210045 27 148 4.8 11.3 0.00 0.23 0.03 70 1015.8
20260510204539 28 49 1.6 11.3 0.00 0.25 0.03 69 1015.9
20260510203034 28 219 4.8 12.9 0.00 0.25 0.03 68 1015.9
20260510201529 28 150 3.2 9.7 0.00 0.25 0.03 68 1015.9
20260510200028 28 148 1.6 9.7 0.00 0.25 0.03 67 1016.1
20260510194527 28 192 1.6 9.7 0.00 0.25 0.03 71 1015.9
20260510193030 28 167 3.2 12.9 0.00 0.25 0.03 69 1016.0
20260510191529 28 167 3.2 9.7 0.00 0.25 0.03 70 1016.2
20260510190031 27 0 1.6 9.7 0.00 0.25 0.03 73 1016.3
20260510184535 28 221 1.6 8.0 0.00 0.25 0.03 69 1016.4
20260510183028 28 165 3.2 9.7 0.00 0.25 0.03 67 1016.6
20260510181558 28 229 0.0 3.2 0.00 0.25 0.03 69 1016.7
20260510180037 28 245 0.0 4.8 0.00 0.25 0.03 68 1016.8
20260510174549 28 0 0.0 3.2 0.00 0.25 0.03 67 1016.9
20260510173026 27 0 0.0 3.2 0.00 0.25 0.03 68 1016.9
20260510171530 27 39 1.6 6.4 0.00 0.25 0.03 70 1017.0
20260510170028 26 96 3.2 8.0 0.00 0.25 0.03 70 1017.3
20260510164534 27 347 0.0 1.6 0.00 0.41 0.03 74 1017.3
20260510163028 27 155 3.2 4.8 0.00 0.41 0.03 72 1017.4
20260510161527 26 58 3.2 9.7 0.00 0.41 0.03 75 1017.4
20260510160038 26 91 0.0 4.8 0.00 0.41 0.03 74 1017.3
20260510154528 25 59 1.6 8.0 0.00 3.10 0.03 79 1017.3
20260510153029 25 181 0.0 4.8 0.00 3.10 0.03 81 1017.5
20260510151529 24 60 1.6 4.8 0.00 3.10 0.03 83 1017.5
20260510150031 23 0 1.6 4.8 0.00 3.10 0.03 84 1017.6
20260510144533 23 0 0.0 4.8 0.00 3.12 0.03 86 1017.7
20260510143030 23 8 1.6 4.8 0.00 3.12 0.03 87 1017.7
20260510141534 22 329 1.6 4.8 0.00 3.12 0.03 89 1017.7
20260510140028 21 58 1.6 4.8 0.00 3.12 0.03 92 1017.4
20260510134528 20 42 1.6 4.8 0.00 3.15 0.03 95 1017.4
20260510133030 20 32 3.2 4.8 0.00 3.15 0.03 96 1017.4
20260510131532 19 37 3.2 6.4 0.00 3.15 0.03 96 1017.3
20260510130028 18 24 3.2 6.4 0.00 3.15 0.03 96 1017.1
20260510124529 18 43 1.6 4.8 0.00 3.15 0.03 96 1017.0
20260510123033 18 17 3.2 9.7 0.00 3.15 0.03 96 1016.8
20260510121528 18 25 1.6 4.8 0.00 3.15 0.03 96 1016.5
20260510120029 18 27 0.0 3.2 0.00 3.15 0.03 96 1016.2
20260510114536 18 15 0.0 3.2 0.00 3.17 0.03 96 1016.1
20260510113028 18 0 0.0 1.6 0.00 3.17 0.03 96 1015.9
20260510111530 17 0 0.0 0.0 0.00 3.17 0.03 96 1015.8
20260510110035 18 0 0.0 0.0 0.00 3.17 0.03 96 1015.6
20260510104528 18 0 0.0 0.0 0.00 3.17 0.03 96 1015.0
20260510103028 18 0 0.0 0.0 0.00 3.17 0.03 96 1014.9
20260510101527 18 0 0.0 0.0 0.00 3.17 0.03 96 1014.9
20260510100034 18 0 0.0 0.0 0.00 3.17 0.03 96 1014.7
20260510094530 18 0 0.0 0.0 0.00 3.17 0.03 96 1014.6
20260510093040 18 0 0.0 1.6 0.00 3.17 0.03 96 1014.3
20260510091529 18 0 0.0 1.6 0.03 3.17 0.03 96 1014.2
20260510090031 18 0 0.0 1.6 0.03 3.17 0.03 96 1014.3
20260510084532 18 314 0.0 1.6 0.03 3.20 0.03 96 1013.9
20260510083029 18 0 0.0 0.0 0.03 3.20 0.03 96 1013.5
20260510081530 18 0 0.0 0.0 0.00 3.17 0.00 96 1013.5
20260510080028 19 0 0.0 1.6 0.00 3.17 0.00 96 1013.2
20260510074531 19 0 0.0 0.0 0.00 3.17 0.00 96 1013.3
20260510073028 19 195 0.0 1.6 0.00 3.17 0.00 96 1013.1
20260510071537 19 0 0.0 1.6 0.00 3.17 0.00 96 1013.0
20260510070031 19 188 0.0 0.0 0.00 3.17 0.00 96 1013.3
20260510064528 19 0 0.0 0.0 0.00 3.17 0.00 96 1013.6
20260510063029 19 0 0.0 1.6 0.00 3.17 0.00 96 1013.6
20260510061541 19 321 0.0 1.6 0.00 3.17 0.00 96 1013.7
20260510060029 19 0 0.0 0.0 0.00 3.17 0.00 96 1013.9
20260510054528 20 0 0.0 0.0 0.00 3.20 0.00 96 1014.1
20260510053030 20 0 0.0 0.0 0.00 3.20 0.00 96 1014.3
20260510051531 19 0 0.0 4.8 0.00 3.20 0.00 96 1013.8
20260510050027 20 0 0.0 1.6 0.00 3.20 0.00 96 1013.5
20260510044528 20 0 0.0 3.2 0.00 3.23 3.20 96 1014.2
20260510043028 20 0 0.0 0.0 0.00 3.23 3.20 96 1014.2
20260510041527 20 0 0.0 0.0 0.00 3.23 3.20 96 1014.4
20260510040030 20 0 0.0 0.0 0.00 3.23 3.20 96 1014.6
20260510034529 20 0 0.0 0.0 0.00 3.23 3.20 96 1014.6
20260510033029 20 0 0.0 0.0 0.00 3.23 3.20 96 1014.5
20260510031542 19 0 0.0 0.0 0.00 3.23 3.20 96 1014.4
20260510030030 20 0 0.0 0.0 0.00 3.23 3.20 96 1014.3
20260510024541 20 0 0.0 1.6 0.00 3.25 3.20 96 1013.9
20260510023030 20 17 0.0 3.2 0.00 3.25 3.20 95 1014.0
20260510021529 20 0 0.0 1.6 0.00 3.25 3.20 95 1014.0
20260510020028 20 0 0.0 1.6 0.03 3.25 3.20 95 1013.9
20260510014534 20 0 0.0 0.0 0.03 3.28 3.20 96 1014.2
20260510013029 20 0 0.0 0.0 0.03 3.28 3.20 95 1014.5
20260510011536 20 0 0.0 0.0 0.05 3.28 3.20 95 1014.3
20260510010031 20 0 0.0 1.6 0.03 3.25 3.17 95 1014.3
20260510004527 20 0 0.0 1.6 0.03 3.28 3.17 95 1013.8
20260510003055 20 0 0.0 4.8 0.03 3.28 3.17 95 1013.5
20260510001531 20 0 0.0 3.2 0.00 3.25 3.15 95 1012.9
20260510000028 20 174 0.0 3.2 0.03 3.25 3.15 95 1012.9
20260509234530 20 0 0.0 1.6 0.05 3.25 3.15 95 1013.2
20260509233029 20 0 0.0 0.0 0.08 3.25 3.15 95 1013.3